Flag for Norway Weather past 2 weeks in Ålesund, Norway

Now
63 °F

Partly sunny.


Feels Like: 63 °F
Forecast: 59 / 66 °F
Wind: 6 mph from West

Location: Alesund / Vigra

Current Time: Jul 29, 2014 at 9:25:33 PM

Latest Report: Jul 29, 2014 at 8:50 PM


Visibility: N/A

Pressure: 29.74 "Hg

Humidity: 88%

Dew point: 59 °F

Location of ÅlesundLocation

Historic Weather in Ålesund — Graph

°F

Ålesund temperature yesterday

Maximum temperature yesterday: 68 °F (at 3:20 PM)
Minimum temperature yesterday: 61 °F (at 2:50 AM)
Average temperature yesterday: 63 °F

Past Weeks' High & Low Weather Summary

 TemperatureHumidityPressure
High82 °F (Jul 21, 12:50 PM)100% (Jul 15, 11:20 PM)30.39 "Hg (Jul 15, 11:20 PM)
Low55 °F (Jul 15, 2:50 AM)32% (Jul 21, 12:50 PM)29.68 "Hg (Jul 14, 7:20 PM)
Average63 °F84%30.06 "Hg
* Reported Jul 14 7:20 PM — Jul 29 7:50 PM, Ålesund, Weather by CustomWeather, © 2014

Note: Actual official high and low records may vary slightly from our data, if they occured in-between our weather recording intervals... More about our weather records

Advertising

Ålesund weather history for previous 24 hours

 ConditionsComfort  
Time TempWeatherWind HumidityBarometerVisibility
7:50 PM
Jul 29
64 °FPartly sunny.8 mph83%29.74 "HgN/A
7:20 PM64 °FPartly sunny.9 mph78%29.74 "HgN/A
6:50 PM64 °FPartly sunny.8 mph83%29.77 "HgN/A
6:20 PM64 °FPartly sunny.6 mph83%29.77 "HgN/A
5:50 PM64 °FPartly sunny.6 mph83%29.77 "HgN/A
5:20 PM64 °FPartly sunny.7 mph83%29.77 "HgN/A
4:50 PM66 °FBroken clouds.7 mph83%29.80 "HgN/A
4:20 PM66 °FBroken clouds.8 mph78%29.80 "HgN/A
3:50 PM66 °FScattered showers. Broken clouds.8 mph83%29.80 "HgN/A
3:20 PM66 °FPartly sunny.2 mph83%29.80 "HgN/A
2:50 PM66 °FBroken clouds.2 mph78%29.80 "HgN/A
2:20 PM64 °FBroken clouds.3 mph88%29.83 "HgN/A
1:50 PM64 °FLight rain. Broken clouds.3 mph88%29.83 "HgN/A
1:20 PM64 °FBroken clouds.3 mph88%29.83 "HgN/A
12:50 PM64 °FSleet. Broken clouds.1 mph88%29.83 "HgN/A
12:20 PM63 °FSleet. Broken clouds.2 mph94%29.83 "HgN/A
11:50 AM63 °FDrizzle. Broken clouds.1 mph94%29.83 "Hg5 mi
11:20 AM64 °FRain. Broken clouds.2 mph88%29.83 "Hg3 mi
10:50 AM64 °FRain. Partly sunny.3 mph88%29.83 "Hg4 mi
9:50 AM64 °FPartly sunny.3 mph88%29.86 "HgN/A
9:20 AM63 °FBroken clouds.1 mph88%29.86 "HgN/A
8:50 AM63 °FBroken clouds.2 mph94%29.86 "HgN/A
8:20 AM63 °FBroken clouds.3 mph94%29.86 "HgN/A
7:50 AM63 °FBroken clouds.3 mph94%29.86 "HgN/A
7:20 AM63 °FBroken clouds.5 mph88%29.86 "HgN/A
6:50 AM61 °FScattered clouds.1 mph94%29.86 "HgN/A
6:20 AM59 °FScattered clouds.2 mph94%29.86 "HgN/A
5:50 AM59 °FScattered clouds.2 mph100%29.89 "HgN/A
5:20 AM59 °FPassing clouds.No wind94%29.89 "HgN/A
4:50 AM59 °FPassing clouds.No wind94%29.89 "HgN/A
4:20 AM59 °FPassing clouds.3 mph94%29.89 "HgN/A
3:50 AM61 °FOvercast.5 mph88%29.89 "HgN/A
3:20 AM61 °FOvercast.2 mph94%29.92 "HgN/A
2:50 AM59 °FOvercast.3 mph94%29.92 "HgN/A
2:20 AM59 °FOvercast.5 mph94%29.92 "HgN/A
1:50 AM61 °FPassing clouds.9 mph88%29.92 "HgN/A
1:20 AM59 °FCool.9 mph94%29.92 "HgN/A
12:50 AM59 °FCool.9 mph94%29.92 "HgN/A
12:20 AM59 °FPassing clouds.10 mph94%29.92 "HgN/A
11:50 PM
Jul 28
61 °FCool.10 mph88%29.92 "HgN/A
11:20 PM61 °FSunny.12 mph88%29.92 "Hg10 mi
10:50 PM61 °FSunny.10 mph88%29.95 "Hg10 mi
10:20 PM61 °FSunny.12 mph88%29.95 "Hg10 mi
9:50 PM61 °FSunny.10 mph88%29.95 "Hg10 mi
9:20 PM63 °FMild.10 mph83%29.95 "HgN/A
Weather by CustomWeather, © 2014

See weather overviewHow to use our weather pages